Flag for U.S.A. Weather past 2 weeks in Peoria, Illinois, U.S.A.

Now
84 °F

Passing clouds.


Feels Like: 84 °F
Forecast: 60 / 81 °F
Wind: 7 mph from Southwest

Location: Greater Peoria Regional Airport

Current Time: Jul 31, 2014 at 3:13:12 PM

Latest Report: Jul 31, 2014 at 1:54 PM


Visibility: 10 mi

Pressure: 30.06 "Hg

Humidity: 43%

Dew point: 59 °F

Location of PeoriaLocation

Historic Weather in Peoria — Graph

°F

Peoria temperature yesterday

Maximum temperature yesterday: 83 °F (at 2:54 PM)
Minimum temperature yesterday: 61 °F (at 5:54 AM)
Average temperature yesterday: 72 °F

Past Weeks' High & Low Weather Summary

 TemperatureHumidityPressure
High87 °F (Jul 21, 2:54 PM)94% (Jul 27, 2:03 AM)30.16 "Hg (Jul 27, 2:03 AM)
Low57 °F (Jul 17, 4:54 AM)37% (Jul 30, 2:54 PM)29.78 "Hg (Jul 27, 4:54 AM)
Average72 °F66%30.03 "Hg
* Reported Jul 16 1:54 PM — Jul 31 1:54 PM, Peoria, Weather by CustomWeather, © 2014

Note: Actual official high and low records may vary slightly from our data, if they occured in-between our weather recording intervals... More about our weather records

Advertising

Peoria weather history for previous 24 hours

 ConditionsComfort  
Time TempWeatherWind HumidityBarometerVisibility
1:54 PM
Jul 31
84 °FPassing clouds.7 mph43%30.06 "Hg10 mi
12:54 PM83 °FPassing clouds.6 mph46%30.07 "Hg10 mi
11:54 AM81 °FPassing clouds.5 mph51%30.07 "Hg10 mi
10:54 AM79 °FSunny.7 mph56%30.08 "Hg10 mi
9:54 AM76 °FSunny.5 mph60%30.08 "Hg10 mi
8:54 AM72 °FSunny.No wind68%30.08 "Hg10 mi
7:54 AM67 °FSunny.No wind79%30.07 "Hg10 mi
6:54 AM62 °FSunny.No wind83%30.06 "Hg10 mi
5:54 AM61 °FClear.No wind83%30.06 "Hg10 mi
4:54 AM61 °FClear.3 mph87%30.06 "Hg10 mi
3:54 AM62 °FClear.No wind83%30.05 "Hg10 mi
2:54 AM63 °FClear.No wind84%30.05 "Hg10 mi
1:54 AM65 °FClear.No wind78%30.05 "Hg10 mi
12:54 AM66 °FClear.No wind75%30.05 "Hg10 mi
11:54 PM
Jul 30
66 °FClear.3 mph78%30.05 "Hg10 mi
10:54 PM69 °FClear.No wind70%30.05 "Hg10 mi
9:54 PM70 °FClear.No wind68%30.04 "Hg10 mi
8:54 PM74 °FPartly sunny.5 mph60%30.03 "Hg10 mi
7:54 PM76 °FSunny.5 mph54%30.03 "Hg10 mi
6:54 PM80 °FSunny.7 mph44%30.02 "Hg10 mi
5:54 PM81 °FSunny.9 mph41%30.02 "Hg10 mi
4:54 PM82 °FSunny.10 mph38%30.03 "Hg10 mi
3:54 PM82 °FPassing clouds.6 mph41%30.04 "Hg10 mi
Weather by CustomWeather, © 2014

See weather overviewHow to use our weather pages